San Sebastian, Spain

5:28 PM CEST on September 24, 2017 (GMT +0200)
San Sebastian

Weather History for LESO - January, 2013

Change the Weather History Date:

Thursday, January 3, 2013

  Actual Average Record
Temperature  
Mean Temperature 48 °F -  
Max Temperature 53 °F 53 °F 69 °F (1998)
Min Temperature 42 °F 41 °F 30 °F (2017)
Degree Days  
Heating Degree Days 18    
Moisture  
Dew Point 39 °F    
Average Humidity 72    
Maximum Humidity 93    
Minimum Humidity 51    
Precipitation  
Precipitation 0.00 in - - ()
Sea Level Pressure  
Sea Level Pressure 30.68 in    
Wind  
Wind Speed 3 mph ()    
Max Wind Speed 10 mph    
Max Gust Speed -    
Visibility 6.2 miles    
Events      
Averages and records for this station are not official NWS values.
T = Trace of Precipitation, MM = Missing Value Source: Averaged Metar Reports

Daily Weather History Graph

Daily Weather History Graph

Search for Another Location

Airport or City:

Trip Planner

Search our weather history database for the weather conditions in past years. The results will help you decide how hot, cold, wet, or windy it might be!

Date:

Astronomy

Jan. 03, 2013 Rise Set
Actual Time 8:39 AM CET 5:43 PM CET
Civil Twilight 8:07 AM CET 6:16 PM CET
Nautical Twilight 7:31 AM CET 6:52 PM CET
Astronomical Twilight 6:56 AM CET 7:26 PM CET
Moon No Moon Rise 11:33 AM CET (1/3)
Length of Visible Light 10h 08m
Length of Day
9h 04m
Waning Gibbous, 68% of the Moon is Illuminated
Jan 3
Waning Gibbous
Jan 5
Last Quarter
Jan 11
New
Jan 19
First Quarter
Jan 27
Full

Hourly Weather History & Observations

Time (CET) Temp. Dew Point Humidity Pressure Visibility Wind Dir Wind Speed Gust Speed Precip Events Conditions
5:30 AM 44.6 °F 41.0 °F 87% 30.63 in - Variable 2.3 mph - N/A   Clear
6:00 AM 44.6 °F 41.0 °F 87% 30.63 in - Variable 2.3 mph - N/A   Clear
6:30 AM 44.6 °F 41.0 °F 87% 30.63 in - Variable 2.3 mph - N/A   Clear
7:00 AM 44.6 °F 39.2 °F 81% 30.66 in - Variable 1.2 mph - N/A   Clear
7:30 AM 44.6 °F 41.0 °F 87% 30.66 in - Variable 1.2 mph - N/A   Clear
8:00 AM 44.6 °F 41.0 °F 87% 30.66 in 6.2 mi Variable 1.2 mph - N/A   Mostly Cloudy
8:30 AM 42.8 °F 39.2 °F 87% 30.69 in 6.2 mi Variable 1.2 mph - N/A   Partly Cloudy
9:00 AM 42.8 °F 39.2 °F 87% 30.69 in 6.2 mi Variable 1.2 mph - N/A   Partly Cloudy
9:30 AM 42.8 °F 39.2 °F 87% 30.69 in - Variable 2.3 mph - N/A   Clear
10:00 AM 42.8 °F 41.0 °F 93% 30.71 in - Variable 1.2 mph - N/A   Clear
10:30 AM 44.6 °F 41.0 °F 87% 30.71 in - Variable 1.2 mph - N/A   Clear
11:00 AM 46.4 °F 39.2 °F 76% 30.71 in - Variable 1.2 mph - N/A   Clear
11:30 AM 48.2 °F 41.0 °F 76% 30.71 in - Calm Calm - N/A   Clear
12:00 PM 50.0 °F 39.2 °F 66% 30.69 in - Variable 1.2 mph - N/A   Clear
12:30 PM 51.8 °F 41.0 °F 67% 30.69 in - NNE 3.5 mph - N/A   Clear
1:00 PM 50.0 °F 41.0 °F 71% 30.69 in - NNE 8.1 mph - N/A   Clear
2:00 PM 53.6 °F 37.4 °F 54% 30.66 in - NNE 3.5 mph - N/A   Clear
2:30 PM 53.6 °F 37.4 °F 54% 30.66 in - NE 8.1 mph - N/A   Clear
3:00 PM 53.6 °F 37.4 °F 54% 30.66 in - NE 8.1 mph - N/A   Clear
3:30 PM 53.6 °F 37.4 °F 54% 30.66 in - ENE 5.8 mph - N/A   Clear
4:00 PM 53.6 °F 35.6 °F 51% 30.66 in - NE 6.9 mph - N/A   Clear
4:30 PM 53.6 °F 37.4 °F 54% 30.66 in - NE 8.1 mph - N/A   Clear
5:00 PM 51.8 °F 35.6 °F 54% 30.69 in - NE 10.4 mph - N/A   Clear
5:30 PM 51.8 °F 35.6 °F 54% 30.69 in - ENE 5.8 mph - N/A   Clear
6:00 PM 50.0 °F 37.4 °F 62% 30.69 in - NE 6.9 mph - N/A   Clear
6:30 PM 50.0 °F 37.4 °F 62% 30.69 in - NE 5.8 mph - N/A   Clear
7:00 PM 48.2 °F 39.2 °F 71% 30.71 in - Variable 2.3 mph - N/A   Clear
7:30 PM 48.2 °F 39.2 °F 71% 30.71 in - Calm Calm - N/A   Clear
8:00 PM 48.2 °F 37.4 °F 66% 30.71 in - ENE 3.5 mph - N/A   Clear
8:30 PM 46.4 °F 37.4 °F 71% 30.71 in - Variable 1.2 mph - N/A   Clear
9:00 PM 44.6 °F 39.2 °F 81% 30.71 in - Calm Calm - N/A   Clear
9:30 PM 44.6 °F 39.2 °F 81% 30.71 in - Calm Calm - N/A   Clear